Location: Courçay
(47.2523°N, 0.8761°E)
Time: 03:08:06
(UTC+00:00)

USA 281 - Pass Details

Date: 18 November 2025
Orbit: 1079 x 1080 km, 106.0° (Epoch: 27 November)

Event Time Altitude Azimuth Distance (km) Brightness Sun altitude
Exits shadow 19:58:23 52° 302° (WNW) 1,330 3.8 -37.1°
Drops below altitude 10° 20:03:26 10° 330° (NNW) 2,930 5.9 -38.0°
Sets 20:06:00 0° 333° (NNW) 3,890 6.6 -38.4°
